Air Resources Laboratory banner image
Air Resources Laboratory web site National Oceanic and Atmospheric Administration (NOAA)

sc roundup


Office: CAE

ASUS42 KCAE 200510
RWRCAE
REGIONAL WEATHER ROUNDUP
NATIONAL WEATHER SERVICE COLUMBIA SC
1200 AM EST TUE FEB 20 2018

NOTE: "FAIR" INDICATES FEW OR NO CLOUDS BELOW 12,000 FEET WITH NO
SIGNIFICANT WEATHER AND/OR OBSTRUCTIONS TO VISIBILITY.

NOT ALL STATIONS ARE QUALITY CONTROLLED BY THE NATIONAL
WEATHER SERVICE. USE DATA WITH CAUTION...ESPECIALLY
DEWPOINT OBSERVATIONS.

SCZ001>056-GAZ040-063>065-077-200600-
...UPSTATE SOUTH CAROLINA...

CITY           SKY/WX    TMP DP  RH WIND       PRES   REMARKS
ANDERSON       CLOUDY    55  55 100 E10       30.38S FOG
LIBERTY        CLOUDY    53  53 100 NE5       30.38F
SPARTANBURG    CLOUDY    52  50  93 CALM      30.41S FOG
CLEMSON        CLOUDY    54  53  97 NE6       30.39S
GREENVILLE     FOG       54  54 100 E7        30.41S VSB 1/2
GREENWOOD      CLOUDY    56  56 100 NE6       30.41R FOG
GREER          FOG       54  54 100 NE5       30.41R VSB 1/2
ROCK HILL      FOG       53  53 100 E3        30.42S VSB 1/2
CHESTER        FOG       54  54 100 CALM      30.42S VSB 1/4
LAURENS        FOG       54  54 100 CALM      30.40S VSB 1/2


...CENTRAL SOUTH CAROLINA...

CITY           SKY/WX    TMP DP  RH WIND       PRES   REMARKS
COLUMBIA APT   FAIR      63  61  93 E5        30.39R
COLUMBIA OWENS FAIR      61  59  93 CALM      30.41R
MCENTIRE ANGB  FAIR      59  59 100 E3        30.40R
ORANGEBURG     FAIR      59  57  93 E3        30.39S FOG
SUMTER SHAW    CLOUDY    61  58  91 E5        30.39R
NEWBERRY       FAIR      55  54  94 NE3       30.44R FOG
AIKEN          FAIR      61  61 100 CALM      30.41S
BARNWELL         N/A     64  64 100 CALM      30.38S FOG
MANNING        HAZE      63  50  63 MISG      30.41R VSB 1/2
CAMDEN         CLOUDY    57  55  94 CALM      30.42S
LANCASTER      CLOUDY    54  54 100 CALM      30.42S FOG
WINNSBORO      CLOUDY    59  57  94 E6        30.41R


...EASTERN AND COASTAL SOUTH CAROLINA...

CITY           SKY/WX    TMP DP  RH WIND       PRES   REMARKS
MYRTLE BEACH   FOG       62  61  96 CALM      30.43R VSB 1/2
N MYRTLE BCH   FOG       63  63 100 E3        30.41S VSB 1/2
CONWAY         FAIR      54  54 100 CALM      30.42S FOG
MARION         FOG       59  59 100 CALM      30.42S VSB 1/4
HARTSVILLE     CLOUDY    54  54 100 E5        30.42R FOG
FLORENCE       CLOUDY    59  57  93 NE3       30.42R FOG
DARLINGTON     LGT RAIN  56  56 100 CALM      30.43R VSB 1/2
CHARLESTON APT FOG       63  63 100 CALM      30.39S VSB 1/4
MOUNT PLEASANT FOG       61  61 100 CALM      30.40S VSB 1/4
WALTERBORO     FOG       63  63 100 CALM      30.40R VSB 1/2
BEAUFORT       FOG       61  61 100 NE5       30.38  VSB 1/4


...EASTERN GEORGIA...

CITY           SKY/WX    TMP DP  RH WIND       PRES   REMARKS
AUGUSTA BUSH F FAIR      57  57 100 CALM      30.36R FOG
AUGUSTA DANIEL CLOUDY    66  61  84 E5        30.37S
THOMSON        CLOUDY    59  57  94 E3        30.42R
WASHINGTON     MOCLDY    55  55 100 NE3       30.38R
CLAXTON        FOG       63  63  98 CALM      30.36S VSB 1/2
SYLVANIA       FAIR      64  64 100 CALM      30.38R
STATESBORO     FAIR      62  32  32 CALM      30.37S
SAVANNAH       FOG       63  63 100 E3        30.37S VSB 1/4


...SOUTHERN NORTH CAROLINA...

CITY           SKY/WX    TMP DP  RH WIND       PRES   REMARKS
CHARLOTTE      FOG       53  53 100 VRB3      30.42S VSB 1/2
MONROE         FOG       52  52 100 NE7       30.41S VSB 1/4
WADESBORO      FOG       52  51  95 CALM      30.43R VSB 1/2
ROCKINGHAM     CLOUDY    54  54 100 CALM      30.43R FOG
RUTHERFORDTON  FOG       52  52 100 CALM      30.42S VSB 3/4
ASHEVILLE      CLOUDY    54  52  93 N3        30.40S

$$




Office: CHS ASUS42 KCHS 200512 RWRCHS Regional Weather Roundup National Weather Service Charleston SC 1200 AM EST TUE FEB 20 2018 NOTE: "fair" indicates few or no clouds below 12,000 feet with no significant weather and/or obstructions to visibility. Not all stations are quality controlled. Use data with caution, especially dewpoint observations. SCZ027-030-031-034>040-042>050-200600- ...Southeast South Carolina... CITY SKY/WX TMP DP RH WIND PRES REMARKS N Charleston FOG 63 63 100 CALM 30.39S VSB 1/4 Waterfront Prk NOT AVBL Mount Pleasant FOG 61 61 100 CALM 30.40S VSB 1/4 Johns Island FOG 63 63 100 CALM 30.39S VSB 1/4 Pinopolis NOT AVBL Moncks Corner LGT RAIN 63 61 94 CALM 30.40R VSB 1/4 Summerville MOCLDY 61 61 100 CALM 30.40R Beaufort MCAS FOG 61 61 100 NE5 30.38S VSB 1/4 Beaufort Arpt FOG 61 61 100 CALM 30.38R VSB 1/4 Hilton Head Is FAIR 66 64 94 CALM 30.38S Walterboro FOG 63 63 100 CALM 30.40R VSB 1/2 Allendale FAIR 64 64 100 CALM 30.37S ...Southern Midlands and Pee Dee... CITY SKY/WX TMP DP RH WIND PRES REMARKS Georgetown FOG 59 57 94 SW3 30.42S VSB 1/4 Kingstree FOG 63 61 94 CALM 30.41R VSB 1/4 Orangeburg FAIR 59 57 93 E3 30.39S FOG Barnwell N/A 64 64 100 CALM 30.38S FOG Aiken FAIR 61 61 100 CALM 30.41S Manning HAZE 63 50 63 MISG 30.41R VSB 1/2 Columbia FAIR 63 61 93 E5 30.39R Sumter CLOUDY 61 58 91 E5 30.39R Florence CLOUDY 59 57 93 NE3 30.42R FOG Myrtle Beach FOG 62 61 96 CALM 30.43R VSB 1/2 N Myrtle Beach FOG 63 63 100 E3 30.41S VSB 1/2 $$ GAZ063-065-086>088-099>101-113>116-118-119-134>141-150-200600- ...Southeast Georgia... CITY SKY/WX TMP DP RH WIND PRES REMARKS Savannah Arpt FOG 63 63 100 E3 30.37S VSB 1/4 Hunter AAF CLEAR 63 61 94 CALM 30.34S FOG Fort Stewart FAIR 61 61 100 CALM 30.34S FOG Statesboro FAIR 62 32 32 CALM 30.37S Sylvania FAIR 64 64 100 CALM 30.38R Claxton FOG 63 63 98 CALM 30.36S VSB 1/2 ...CSRA, Central and far Southeast Georgia... CITY SKY/WX TMP DP RH WIND PRES REMARKS Thomson CLOUDY 59 57 94 E3 30.42R Augusta-Bush FAIR 57 57 100 CALM 30.36R FOG Augusta-Daniel CLOUDY 66 61 84 E5 30.37S Swainsboro FAIR 66 63 88 SE5 30.37R Vidalia FAIR 64 63 94 SE3 30.35S Eastman FAIR 67 56 68 SE3 30.36S Hazlehurst FAIR 67 64 89 SE7 30.33S Alma FAIR 65 63 93 E3 30.34S Waycross FAIR 66 63 90 SE6 30.34S Jesup FAIR 64 63 94 CALM 30.35S Baxley FAIR 63 63 100 CALM 30.34S Brunswick FAIR 64 61 88 SE3 30.36S Saint Simons FAIR 65 64 97 SE8 30.34F $$ SCZ027-028-034-036>038-045-046-048>050-GAZ119-141-200600- ...Lake and Supplemental Coastal Observations... STATION/POSITION TIME TEMP WIND PRES WAVE SWELL AIR SEA DIR/SP/G HT/PER HT/PER/DIR (UTC) (F) (DEG/KT/KT) (MB) (FT/S) (FT/S/D) Winyah Bay 0345 60 50/ 4 1030.0 Lake Murray 0420 62 20/ 1/ 3 1028.4 ACE Basin NERRS 0345 63 CALM 1029.0 Fort Pulaski 0448 64 59 130/ 2/ 4 1028.6S Sapelo Island 0400 69 140/ 7 1028.0 $$ ANZ835-935-AMZ111-154-330-350-352-354-370-450-454-472-200600- ...C-MAN and Buoy Observations... STATION/POSITION TIME TEMP WIND PRES WAVE SWELL AIR SEA DIR/SP/G HT/PER HT/PER/DIR (UTC) (F) (DEG/KT/KT) (MB) (FT/S) (FT/S/D) Buoy 41004 0450 70 68 150/ 6/ 8 1029.1R 4/ 9 3/100/ 9 Buoy 41008 0450 63 58 110/ 6/ 6 1027.6F 3/ 9 3/ 80/ 9 Folly Beach CMAN 0400 60 60/ 1/ 2 1029.5R Capers Nearshore NOT AVBL Fripp Nearshore 0408 58 58 120/ 12 1027.2F STATION/POSITION TIME TEMP WIND PRES WAVE SWELL AIR SEA DIR/SP/G HT/PER HT/PER/DIR (UTC) (F) (DEG/KT/KT) (MB) (FT/S) (FT/S/D) 5E St. Marys GA 0430 62 N/A 3/ 5 Frying Pan Buoy 0450 71 68 160/ 10/ 12 1029.9R 4/ 6 3/100/ 6 Buoy 41025 0450 72 73 160/ 16/ 19 1031.7R 4/ 9 2/ 60/ 9 Cape Lookout NC 0400 170/ 5/ 5 1030.9R Buoy 41002 0450 72 72 120/ 14/ 16 1031.0S 4/ 8 3/ 60/ 8 Buoy 41010 NOT AVBL St Augustine FL 0500 67 63 120/ 9/ 10 1027.1F $$ ASUS42 KCHS 200527 RWRCHS Regional Weather Roundup National Weather Service Charleston SC 1200 AM EST TUE FEB 20 2018 NOTE: "fair" indicates few or no clouds below 12,000 feet with no significant weather and/or obstructions to visibility. Not all stations are quality controlled. Use data with caution, especially dewpoint observations. SCZ027-030-031-034>040-042>050-200600- ...Southeast South Carolina... CITY SKY/WX TMP DP RH WIND PRES REMARKS N Charleston FOG 63 63 100 CALM 30.39S VSB 1/4 Waterfront Prk NOT AVBL Mount Pleasant CLOUDY 61 61 100 CALM 30.40S FOG Johns Island FOG 61 61 100 CALM 30.39S VSB 1/4 Pinopolis NOT AVBL Moncks Corner LGT RAIN 63 61 94 CALM 30.40R VSB 1/4 Summerville FAIR 61 59 94 CALM 30.40R Beaufort MCAS FOG 61 61 100 NE3 30.38S VSB 1/4 Beaufort Arpt FOG 61 61 100 CALM 30.37S VSB 1/4 Hilton Head Is FAIR 66 64 94 SE3 30.38S Walterboro FOG 61 61 100 CALM 30.40S VSB 1/4 Allendale MOCLDY 64 64 100 CALM 30.37S ...Southern Midlands and Pee Dee... CITY SKY/WX TMP DP RH WIND PRES REMARKS Georgetown FOG 59 57 94 CALM 30.42R VSB 1/4 Kingstree FOG 63 61 94 CALM 30.41R VSB 1/4 Orangeburg FAIR 59 57 93 E3 30.39S FOG Barnwell N/A 64 64 100 CALM 30.38S FOG Aiken FAIR 59 59 100 CALM 30.41S Manning HAZE 63 52 67 MISG 30.41R VSB 1/2 Columbia FAIR 63 61 93 E5 30.39R Sumter CLOUDY 61 59 94 NE3 30.39S FOG Florence CLOUDY 59 57 93 NE3 30.42R FOG Myrtle Beach FOG 61 61 100 CALM 30.43S VSB 1/4 N Myrtle Beach FOG 62 62 100 CALM 30.41S VSB 1/4 $$ GAZ063-065-086>088-099>101-113>116-118-119-134>141-150-200600- ...Southeast Georgia... CITY SKY/WX TMP DP RH WIND PRES REMARKS Savannah Arpt FOG 63 63 100 E3 30.37S VSB 1/4 Hunter AAF CLEAR 63 61 94 CALM 30.34S FOG Fort Stewart FAIR 61 61 100 CALM 30.34S FOG Statesboro FAIR 60 32 34 CALM 30.37S FOG Sylvania FAIR 64 64 100 CALM 30.38R FOG Claxton FOG 63 63 98 CALM 30.36S VSB 1/2 ...CSRA, Central and far Southeast Georgia... CITY SKY/WX TMP DP RH WIND PRES REMARKS Thomson CLOUDY 60 58 94 CALM 30.42S Augusta-Bush FAIR 57 57 100 CALM 30.36R FOG Augusta-Daniel CLOUDY 66 61 84 E5 30.37S Swainsboro FAIR 64 63 94 SE5 30.36S Vidalia FAIR 63 63 100 SE3 30.35S Eastman MOCLDY 67 56 69 SE3 30.36S Hazlehurst FAIR 67 65 93 SE5 30.33S Alma FAIR 65 63 93 E3 30.34S Waycross FAIR 65 62 90 SE5 30.34S Jesup FAIR 64 63 94 CALM 30.35S FOG Baxley FAIR 63 63 100 SE3 30.34S Brunswick FAIR 64 61 88 SE5 30.36S Saint Simons FAIR 65 64 97 SE8 30.34F $$ SCZ027-028-034-036>038-045-046-048>050-GAZ119-141-200600- ...Lake and Supplemental Coastal Observations... STATION/POSITION TIME TEMP WIND PRES WAVE SWELL AIR SEA DIR/SP/G HT/PER HT/PER/DIR (UTC) (F) (DEG/KT/KT) (MB) (FT/S) (FT/S/D) Winyah Bay 0445 60 50/ 3 1030.0S Lake Murray 0430 62 30/ 2/ 3 1028.4R ACE Basin NERRS 0445 63 CALM 1029.0S Fort Pulaski 0500 65 59 130/ 3/ 5 1028.6 Sapelo Island 0500 69 140/ 7 1028.0 $$ ANZ835-935-AMZ111-154-330-350-352-354-370-450-454-472-200600- ...C-MAN and Buoy Observations... STATION/POSITION TIME TEMP WIND PRES WAVE SWELL AIR SEA DIR/SP/G HT/PER HT/PER/DIR (UTC) (F) (DEG/KT/KT) (MB) (FT/S) (FT/S/D) Buoy 41004 0510 70 68 140/ 6/ 6 1029.0 Buoy 41008 0450 63 58 110/ 6/ 6 1027.6F 3/ 9 3/ 80/ 9 Folly Beach CMAN 0500 59 40/ 4/ 5 1029.6R Capers Nearshore NOT AVBL Fripp Nearshore 0408 58 58 120/ 12 1027.2F STATION/POSITION TIME TEMP WIND PRES WAVE SWELL AIR SEA DIR/SP/G HT/PER HT/PER/DIR (UTC) (F) (DEG/KT/KT) (MB) (FT/S) (FT/S/D) 5E St. Marys GA 0500 62 N/A 3/ 5 Frying Pan Buoy 0510 71 68 160/ 6/ 8 1030.0 Buoy 41025 0510 72 73 160/ 16/ 19 1031.8 Cape Lookout NC 0500 170/ 5/ 6 1031.2R Buoy 41002 0450 72 72 120/ 14/ 16 1031.0S 4/ 8 3/ 60/ 8 Buoy 41010 NOT AVBL St Augustine FL 0500 67 63 120/ 9/ 10 1027.1F $$